Tracking 29892 objects as of 21-Nov-2024
HD Live streaming from Space Station
objects crossing your sky now

STARLINK-5077

Track STARLINK-5077 now!
10-day predictions
STARLINK-5077 is classified as:


NORAD ID: 55391
Int'l Code: 2023-014A
Perigee: 566.5 km
Apogee: 570.5 km
Inclination: 70.0 °
Period: 95.9 minutes
Semi major axis: 6939 km
RCS: Unknown
Launch date: January 31, 2023
Source: United States (US)
Launch site: AIR FORCE WESTERN TEST RANGE (AFWTR)
Your satellite tracking list
Your tracking list is empty




NASA's NSSDC Master Catalog

Two Line Element Set (TLE):
1 55391U 23014A   24325.01951559  .00016118  00000-0  12389-2 0  9996
2 55391  69.9987 180.8838 0002903 192.7589 167.3499 15.01786537100962
Source of the keplerian elements: AFSPC